Time,TemperatureF,DewpointF,PressureIn,WindDirection,WindDirectionDegrees,WindSpeedMPH,WindSpeedGustMPH,Humidity,HourlyPrecipIn,Conditions,Clouds,dailyrainin,SoftwareType,DateUTC
2013-05-13 00:03:00,47.8,28.0,30.17,West,281,0.0,0.0,46,0.00,,---,0.00,VWS V14.01,2013-05-13 06:03:00,
2013-05-13 00:08:00,47.8,28.0,30.17,West,279,0.0,0.0,46,0.00,,---,0.00,VWS V14.01,2013-05-13 06:08:00,
2013-05-13 00:13:00,47.6,27.9,30.17,SW,219,0.0,2.0,46,0.00,,---,0.00,VWS V14.01,2013-05-13 06:13:00,
2013-05-13 00:18:00,47.5,27.8,30.17,SW,223,0.0,6.0,46,0.00,,---,0.00,VWS V14.01,2013-05-13 06:18:00,
2013-05-13 00:23:00,47.6,27.9,30.17,SW,221,3.0,4.0,46,0.00,,---,0.00,VWS V14.01,2013-05-13 06:23:00,
2013-05-13 00:28:00,47.6,28.4,30.17,SW,221,1.0,1.0,47,0.00,,---,0.00,VWS V14.01,2013-05-13 06:28:00,
2013-05-13 00:33:00,47.6,27.9,30.17,WSW,237,1.0,1.0,46,0.00,,---,0.00,VWS V14.01,2013-05-13 06:33:00,
2013-05-13 00:38:00,47.5,27.8,30.16,WSW,238,0.0,0.0,46,0.00,,---,0.00,VWS V14.01,2013-05-13 06:38:00,
2013-05-13 00:43:00,47.4,28.2,30.16,WSW,238,1.0,2.0,47,0.00,,---,0.00,VWS V14.01,2013-05-13 06:43:00,
2013-05-13 00:48:00,47.3,28.1,30.16,SW,236,10.0,10.0,47,0.00,,---,0.00,VWS V14.01,2013-05-13 06:48:00,
2013-05-13 00:53:00,48.1,28.3,30.16,SW,234,4.0,5.0,46,0.00,,---,0.00,VWS V14.01,2013-05-13 06:53:00,
2013-05-13 00:58:00,49.0,28.6,30.16,WNW,294,13.0,13.0,45,0.00,,---,0.00,VWS V14.01,2013-05-13 06:58:00,
2013-05-13 01:03:00,50.0,28.4,30.16,WSW,244,6.0,12.0,43,0.00,,---,0.00,VWS V14.01,2013-05-13 07:03:00,
2013-05-13 01:08:00,50.4,28.2,30.16,WSW,256,2.0,5.0,42,0.00,,---,0.00,VWS V14.01,2013-05-13 07:08:00,
2013-05-13 01:13:00,50.5,28.3,30.16,SSE,147,8.0,18.0,42,0.00,,---,0.00,VWS V14.01,2013-05-13 07:13:00,
2013-05-13 01:18:00,50.8,28.5,30.16,SSW,194,2.0,9.0,42,0.00,,---,0.00,VWS V14.01,2013-05-13 07:18:00,
2013-05-13 01:23:00,51.2,28.3,30.16,WSW,246,13.0,13.0,41,0.00,,---,0.00,VWS V14.01,2013-05-13 07:23:00,
2013-05-13 01:28:00,51.4,28.5,30.16,West,271,10.0,10.0,41,0.00,,---,0.00,VWS V14.01,2013-05-13 07:28:00,
2013-05-13 01:33:00,51.5,28.6,30.16,South,173,0.0,8.0,41,0.00,,---,0.00,VWS V14.01,2013-05-13 07:33:00,
2013-05-13 01:38:00,51.6,28.7,30.16,West,271,4.0,9.0,41,0.00,,---,0.00,VWS V14.01,2013-05-13 07:38:00,
2013-05-13 01:43:00,51.3,27.8,30.16,WSW,254,10.0,13.0,40,0.00,,---,0.00,VWS V14.01,2013-05-13 07:43:00,
2013-05-13 01:48:00,51.5,28.6,30.15,SSW,195,6.0,9.0,41,0.00,,---,0.00,VWS V14.01,2013-05-13 07:48:00,
2013-05-13 01:53:00,51.6,28.1,30.15,SW,216,9.0,12.0,40,0.00,,---,0.00,VWS V14.01,2013-05-13 07:53:00,
2013-05-13 01:58:00,51.7,28.2,30.15,SSW,209,0.0,8.0,40,0.00,,---,0.00,VWS V14.01,2013-05-13 07:58:00,
2013-05-13 02:03:00,51.7,28.2,30.15,SSW,206,1.0,9.0,40,0.00,,---,0.00,VWS V14.01,2013-05-13 08:03:00,
2013-05-13 02:08:00,51.7,28.2,30.15,SSW,201,19.0,22.0,40,0.00,,---,0.00,VWS V14.01,2013-05-13 08:08:00,
2013-05-13 02:13:00,51.8,28.3,30.14,WSW,244,11.0,12.0,40,0.00,,---,0.00,VWS V14.01,2013-05-13 08:13:00,
2013-05-13 02:18:00,51.9,28.4,30.14,WSW,244,8.0,12.0,40,0.00,,---,0.00,VWS V14.01,2013-05-13 08:18:00,
2013-05-13 02:23:00,52.0,28.5,30.14,WSW,240,2.0,13.0,40,0.00,,---,0.00,VWS V14.01,2013-05-13 08:23:00,
2013-05-13 02:28:00,52.0,28.5,30.14,SW,227,9.0,11.0,40,0.00,,---,0.00,VWS V14.01,2013-05-13 08:28:00,
2013-05-13 02:33:00,51.9,28.4,30.14,SW,216,4.0,8.0,40,0.00,,---,0.00,VWS V14.01,2013-05-13 08:33:00,
2013-05-13 02:38:00,51.9,29.0,30.14,SSE,157,0.0,16.0,41,0.00,,---,0.00,VWS V14.01,2013-05-13 08:38:00,
2013-05-13 02:43:00,51.7,28.8,30.14,WSW,244,4.0,9.0,41,0.00,,---,0.00,VWS V14.01,2013-05-13 08:43:00,
2013-05-13 02:48:00,51.7,28.2,30.14,WSW,242,9.0,14.0,40,0.00,,---,0.00,VWS V14.01,2013-05-13 08:48:00,
2013-05-13 02:53:00,51.7,28.2,30.14,West,262,7.0,12.0,40,0.00,,---,0.00,VWS V14.01,2013-05-13 08:53:00,
2013-05-13 02:58:00,51.7,28.2,30.13,West,281,4.0,12.0,40,0.00,,---,0.00,VWS V14.01,2013-05-13 08:58:00,
2013-05-13 03:03:00,51.7,28.2,30.13,West,263,13.0,18.0,40,0.00,,---,0.00,VWS V14.01,2013-05-13 09:03:00,
2013-05-13 03:08:00,51.7,28.2,30.14,WSW,246,8.0,13.0,40,0.00,,---,0.00,VWS V14.01,2013-05-13 09:08:00,
2013-05-13 03:13:00,51.6,28.1,30.14,WSW,237,15.0,25.0,40,0.00,,---,0.00,VWS V14.01,2013-05-13 09:13:00,
2013-05-13 03:18:00,51.6,28.1,30.13,WSW,239,8.0,14.0,40,0.00,,---,0.00,VWS V14.01,2013-05-13 09:18:00,
2013-05-13 03:23:00,51.7,28.2,30.13,WSW,239,4.0,15.0,40,0.00,,---,0.00,VWS V14.01,2013-05-13 09:23:00,
2013-05-13 03:28:00,51.7,28.2,30.13,West,279,6.0,10.0,40,0.00,,---,0.00,VWS V14.01,2013-05-13 09:28:00,
2013-05-13 03:33:00,51.7,28.2,30.13,South,184,15.0,15.0,40,0.00,,---,0.00,VWS V14.01,2013-05-13 09:33:00,
2013-05-13 03:38:00,51.7,28.2,30.14,SSW,198,11.0,19.0,40,0.00,,---,0.00,VWS V14.01,2013-05-13 09:38:00,
2013-05-13 03:43:00,51.7,28.2,30.14,SW,215,5.0,15.0,40,0.00,,---,0.00,VWS V14.01,2013-05-13 09:43:00,
2013-05-13 03:48:00,51.7,28.8,30.13,NW,307,8.0,16.0,41,0.00,,---,0.00,VWS V14.01,2013-05-13 09:48:00,
2013-05-13 03:53:00,51.5,28.6,30.13,NNW,344,13.0,13.0,41,0.00,,---,0.00,VWS V14.01,2013-05-13 09:53:00,
2013-05-13 03:58:00,51.5,28.6,30.13,WSW,248,16.0,19.0,41,0.00,,---,0.00,VWS V14.01,2013-05-13 09:58:00,
2013-05-13 04:03:00,51.6,28.7,30.13,West,261,8.0,13.0,41,0.00,,---,0.00,VWS V14.01,2013-05-13 10:03:00,
2013-05-13 04:08:00,51.7,28.8,30.13,SSW,205,10.0,11.0,41,0.00,,---,0.00,VWS V14.01,2013-05-13 10:08:00,
2013-05-13 04:13:00,51.7,28.8,30.13,NW,308,13.0,16.0,41,0.00,,---,0.00,VWS V14.01,2013-05-13 10:13:00,
2013-05-13 04:18:00,51.7,28.8,30.13,SW,235,12.0,16.0,41,0.00,,---,0.00,VWS V14.01,2013-05-13 10:18:00,
2013-05-13 04:23:00,51.7,29.4,30.12,WNW,299,9.0,11.0,42,0.00,,---,0.00,VWS V14.01,2013-05-13 10:23:00,
2013-05-13 04:28:00,51.7,28.8,30.12,WSW,240,11.0,18.0,41,0.00,,---,0.00,VWS V14.01,2013-05-13 10:28:00,
2013-05-13 04:33:00,51.7,28.8,30.12,SW,228,13.0,13.0,41,0.00,,---,0.00,VWS V14.01,2013-05-13 10:33:00,
2013-05-13 04:38:00,51.8,29.5,30.12,West,273,14.0,25.0,42,0.00,,---,0.00,VWS V14.01,2013-05-13 10:38:00,
2013-05-13 04:43:00,51.7,28.8,30.12,WSW,258,12.0,16.0,41,0.00,,---,0.00,VWS V14.01,2013-05-13 10:43:00,
2013-05-13 04:48:00,51.7,29.4,30.12,West,272,5.0,14.0,42,0.00,,---,0.00,VWS V14.01,2013-05-13 10:48:00,
2013-05-13 04:53:00,51.7,29.4,30.12,WSW,252,12.0,16.0,42,0.00,,---,0.00,VWS V14.01,2013-05-13 10:53:00,
2013-05-13 04:58:00,51.7,29.4,30.12,SSW,213,5.0,14.0,42,0.00,,---,0.00,VWS V14.01,2013-05-13 10:58:00,
2013-05-13 05:03:00,51.7,29.4,30.12,WNW,302,6.0,23.0,42,0.00,,---,0.00,VWS V14.01,2013-05-13 11:03:00,
2013-05-13 05:08:00,51.8,29.5,30.11,West,275,8.0,15.0,42,0.00,,---,0.00,VWS V14.01,2013-05-13 11:08:00,
2013-05-13 05:13:00,51.7,29.4,30.11,WSW,238,18.0,18.0,42,0.00,,---,0.00,VWS V14.01,2013-05-13 11:13:00,
2013-05-13 05:18:00,51.7,29.4,30.11,WNW,286,5.0,20.0,42,0.00,,---,0.00,VWS V14.01,2013-05-13 11:18:00,
2013-05-13 05:23:00,51.7,29.4,30.11,WNW,290,10.0,16.0,42,0.00,,---,0.00,VWS V14.01,2013-05-13 11:23:00,
2013-05-13 05:28:00,51.7,29.4,30.11,WNW,298,10.0,19.0,42,0.00,,---,0.00,VWS V14.01,2013-05-13 11:28:00,
2013-05-13 05:33:00,51.5,29.2,30.11,WNW,290,6.0,19.0,42,0.00,,---,0.00,VWS V14.01,2013-05-13 11:33:00,
2013-05-13 05:38:00,51.4,29.1,30.12,NNW,344,7.0,9.0,42,0.00,,---,0.00,VWS V14.01,2013-05-13 11:38:00,
2013-05-13 05:43:00,51.3,29.6,30.12,West,271,8.0,15.0,43,0.00,,---,0.00,VWS V14.01,2013-05-13 11:43:00,
2013-05-13 05:48:00,51.2,29.5,30.12,SW,232,3.0,9.0,43,0.00,,---,0.00,VWS V14.01,2013-05-13 11:48:00,
2013-05-13 05:53:00,51.2,29.5,30.12,WSW,241,10.0,14.0,43,0.00,,---,0.00,VWS V14.01,2013-05-13 11:53:00,
2013-05-13 05:58:00,51.2,29.5,30.12,WNW,296,12.0,12.0,43,0.00,,---,0.00,VWS V14.01,2013-05-13 11:58:00,
2013-05-13 06:03:00,51.1,29.4,30.12,WSW,238,4.0,15.0,43,0.00,,---,0.00,VWS V14.01,2013-05-13 12:03:00,
2013-05-13 06:08:00,51.0,29.9,30.12,WSW,238,10.0,11.0,44,0.00,,---,0.00,VWS V14.01,2013-05-13 12:08:00,
2013-05-13 06:13:00,50.8,29.7,30.12,SW,219,2.0,5.0,44,0.00,,---,0.00,VWS V14.01,2013-05-13 12:13:00,
2013-05-13 06:18:00,50.8,29.7,30.13,SW,216,0.0,5.0,44,0.00,,---,0.00,VWS V14.01,2013-05-13 12:18:00,
2013-05-13 06:24:00,50.8,29.7,30.13,West,280,7.0,7.0,44,0.00,,---,0.00,VWS V14.01,2013-05-13 12:24:00,
2013-05-13 06:29:00,50.8,29.7,30.13,WSW,250,5.0,5.0,44,0.00,,---,0.00,VWS V14.01,2013-05-13 12:29:00,
2013-05-13 06:34:00,50.8,29.7,30.13,SE,146,0.0,3.0,44,0.00,,---,0.00,VWS V14.01,2013-05-13 12:34:00,
2013-05-13 06:39:00,51.0,29.9,30.13,SW,234,1.0,4.0,44,0.00,,---,0.00,VWS V14.01,2013-05-13 12:39:00,
2013-05-13 06:44:00,51.2,30.0,30.13,SSW,197,7.0,10.0,44,0.00,,---,0.00,VWS V14.01,2013-05-13 12:44:00,
2013-05-13 06:49:00,51.3,30.1,30.13,WSW,246,9.0,12.0,44,0.00,,---,0.00,VWS V14.01,2013-05-13 12:49:00,
2013-05-13 06:54:00,51.5,30.9,30.13,WSW,244,2.0,4.0,45,0.00,,---,0.00,VWS V14.01,2013-05-13 12:54:00,
2013-05-13 06:59:00,51.6,31.0,30.13,SSW,201,5.0,6.0,45,0.00,,---,0.00,VWS V14.01,2013-05-13 12:59:00,
2013-05-13 07:04:00,51.8,31.1,30.13,South,169,1.0,1.0,45,0.00,,---,0.00,VWS V14.01,2013-05-13 13:04:00,
2013-05-13 07:09:00,51.9,31.8,30.13,WSW,248,5.0,10.0,46,0.00,,---,0.00,VWS V14.01,2013-05-13 13:09:00,
2013-05-13 07:14:00,52.1,30.9,30.13,SSW,206,5.0,8.0,44,0.00,,---,0.00,VWS V14.01,2013-05-13 13:14:00,
2013-05-13 07:19:00,52.4,30.6,30.14,ESE,121,0.0,7.0,43,0.00,,---,0.00,VWS V14.01,2013-05-13 13:19:00,
2013-05-13 07:24:00,52.8,31.5,30.14,SSW,213,4.0,7.0,44,0.00,,---,0.00,VWS V14.01,2013-05-13 13:24:00,
2013-05-13 07:29:00,53.1,31.2,30.14,West,279,8.0,8.0,43,0.00,,---,0.00,VWS V14.01,2013-05-13 13:29:00,
2013-05-13 07:34:00,53.5,31.6,30.14,SSE,157,0.0,6.0,43,0.00,,---,0.00,VWS V14.01,2013-05-13 13:34:00,
2013-05-13 07:39:00,53.8,31.9,30.14,WSW,238,2.0,3.0,43,0.00,,---,0.00,VWS V14.01,2013-05-13 13:39:00,
2013-05-13 07:44:00,54.2,31.6,30.15,SSW,205,2.0,2.0,42,0.00,,---,0.00,VWS V14.01,2013-05-13 13:44:00,
2013-05-13 07:49:00,54.5,30.7,30.14,West,278,4.0,15.0,40,0.00,,---,0.00,VWS V14.01,2013-05-13 13:49:00,
2013-05-13 07:54:00,54.8,31.6,30.15,South,190,10.0,12.0,41,0.00,,---,0.00,VWS V14.01,2013-05-13 13:54:00,
2013-05-13 07:59:00,55.2,31.3,30.15,South,180,5.0,8.0,40,0.00,,---,0.00,VWS V14.01,2013-05-13 13:59:00,
2013-05-13 08:04:00,55.6,31.7,30.15,SW,227,8.0,11.0,40,0.00,,---,0.00,VWS V14.01,2013-05-13 14:04:00,
2013-05-13 08:09:00,56.0,30.8,30.15,WSW,248,5.0,14.0,38,0.00,,---,0.00,VWS V14.01,2013-05-13 14:09:00,
2013-05-13 08:14:00,56.4,31.8,30.15,SSW,201,2.0,9.0,39,0.00,,---,0.00,VWS V14.01,2013-05-13 14:14:00,
2013-05-13 08:19:00,56.9,31.6,30.15,WNW,284,4.0,10.0,38,0.00,,---,0.00,VWS V14.01,2013-05-13 14:19:00,
2013-05-13 08:24:00,57.3,31.9,30.15,WSW,248,4.0,5.0,38,0.00,,---,0.00,VWS V14.01,2013-05-13 14:24:00,
2013-05-13 08:29:00,57.9,31.8,30.15,ESE,117,0.0,2.0,37,0.00,,---,0.00,VWS V14.01,2013-05-13 14:29:00,
2013-05-13 08:34:00,58.3,32.2,30.15,South,175,7.0,12.0,37,0.00,,---,0.00,VWS V14.01,2013-05-13 14:34:00,
2013-05-13 08:39:00,58.6,32.4,30.15,WSW,244,7.0,8.0,37,0.00,,---,0.00,VWS V14.01,2013-05-13 14:39:00,
2013-05-13 08:44:00,59.0,34.1,30.15,SSW,204,1.0,7.0,39,0.00,,---,0.00,VWS V14.01,2013-05-13 14:44:00,
2013-05-13 08:49:00,59.3,33.0,30.15,South,181,5.0,7.0,37,0.00,,---,0.00,VWS V14.01,2013-05-13 14:49:00,
2013-05-13 08:54:00,59.5,31.9,30.15,SW,229,9.0,11.0,35,0.00,,---,0.00,VWS V14.01,2013-05-13 14:54:00,
2013-05-13 08:59:00,59.4,32.5,30.15,SW,234,11.0,11.0,36,0.00,,---,0.00,VWS V14.01,2013-05-13 14:59:00,
2013-05-13 09:04:00,59.5,31.9,30.14,SW,223,5.0,11.0,35,0.00,,---,0.00,VWS V14.01,2013-05-13 15:04:00,
2013-05-13 09:09:00,59.8,32.8,30.14,WSW,249,8.0,10.0,36,0.00,,---,0.00,VWS V14.01,2013-05-13 15:09:00,
2013-05-13 09:14:00,60.0,32.3,30.14,SSW,197,6.0,11.0,35,0.00,,---,0.00,VWS V14.01,2013-05-13 15:14:00,
2013-05-13 09:19:00,60.3,32.6,30.14,West,270,10.0,11.0,35,0.00,,---,0.00,VWS V14.01,2013-05-13 15:19:00,
2013-05-13 09:24:00,60.8,33.0,30.14,WSW,244,11.0,12.0,35,0.00,,---,0.00,VWS V14.01,2013-05-13 15:24:00,
2013-05-13 09:29:00,61.1,32.5,30.13,West,277,4.0,10.0,34,0.00,,---,0.00,VWS V14.01,2013-05-13 15:29:00,
2013-05-13 09:34:00,61.3,32.0,30.13,WNW,294,10.0,24.0,33,0.00,,---,0.00,VWS V14.01,2013-05-13 15:34:00,
2013-05-13 09:39:00,61.3,33.4,30.13,West,273,14.0,16.0,35,0.00,,---,0.00,VWS V14.01,2013-05-13 15:39:00,
2013-05-13 09:44:00,61.6,33.0,30.13,WSW,242,9.0,13.0,34,0.00,,---,0.00,VWS V14.01,2013-05-13 15:44:00,
2013-05-13 09:49:00,62.1,33.4,30.13,WSW,247,0.0,11.0,34,0.00,,---,0.00,VWS V14.01,2013-05-13 15:49:00,
2013-05-13 09:54:00,62.5,32.3,30.13,West,259,5.0,13.0,32,0.00,,---,0.00,VWS V14.01,2013-05-13 15:54:00,
2013-05-13 09:59:00,62.5,33.0,30.13,WNW,289,10.0,16.0,33,0.00,,---,0.00,VWS V14.01,2013-05-13 15:59:00,
2013-05-13 10:04:00,62.5,33.0,30.14,SSW,207,6.0,18.0,33,0.00,,---,0.00,VWS V14.01,2013-05-13 16:04:00,
2013-05-13 10:09:00,62.5,32.3,30.13,WSW,253,10.0,14.0,32,0.00,,---,0.00,VWS V14.01,2013-05-13 16:09:00,
2013-05-13 10:14:00,62.7,34.0,30.14,West,267,12.0,14.0,34,0.00,,---,0.00,VWS V14.01,2013-05-13 16:14:00,
2013-05-13 10:19:00,63.0,32.7,30.13,SW,225,4.0,20.0,32,0.00,,---,0.00,VWS V14.01,2013-05-13 16:19:00,
2013-05-13 10:24:00,63.2,32.9,30.13,SSW,209,8.0,13.0,32,0.00,,---,0.00,VWS V14.01,2013-05-13 16:24:00,
2013-05-13 10:29:00,63.4,32.3,30.13,WSW,244,7.0,13.0,31,0.00,,---,0.00,VWS V14.01,2013-05-13 16:29:00,
2013-05-13 10:34:00,63.5,32.3,30.13,West,278,4.0,20.0,31,0.00,,---,0.00,VWS V14.01,2013-05-13 16:34:00,
2013-05-13 10:39:00,63.6,32.4,30.13,WSW,248,7.0,19.0,31,0.00,,---,0.00,VWS V14.01,2013-05-13 16:39:00,
2013-05-13 10:44:00,63.6,31.6,30.13,WNW,289,12.0,12.0,30,0.00,,---,0.00,VWS V14.01,2013-05-13 16:44:00,
2013-05-13 10:49:00,63.6,31.6,30.13,WSW,237,9.0,19.0,30,0.00,,---,0.00,VWS V14.01,2013-05-13 16:49:00,
2013-05-13 10:54:00,64.0,32.0,30.13,NW,323,18.0,18.0,30,0.00,,---,0.00,VWS V14.01,2013-05-13 16:54:00,
2013-05-13 10:59:00,64.3,32.2,30.13,SW,221,7.0,10.0,30,0.00,,---,0.00,VWS V14.01,2013-05-13 16:59:00,
2013-05-13 11:04:00,64.5,32.4,30.14,WSW,257,5.0,15.0,30,0.00,,---,0.00,VWS V14.01,2013-05-13 17:04:00,
2013-05-13 11:09:00,64.6,31.6,30.13,West,277,15.0,16.0,29,0.00,,---,0.00,VWS V14.01,2013-05-13 17:09:00,
2013-05-13 11:14:00,64.6,32.5,30.13,NW,315,7.0,12.0,30,0.00,,---,0.00,VWS V14.01,2013-05-13 17:14:00,
2013-05-13 11:19:00,65.0,32.0,30.13,West,259,9.0,13.0,29,0.00,,---,0.00,VWS V14.01,2013-05-13 17:19:00,
2013-05-13 11:24:00,65.3,32.3,30.13,WSW,244,6.0,12.0,29,0.00,,---,0.00,VWS V14.01,2013-05-13 17:24:00,
2013-05-13 11:29:00,65.1,31.2,30.13,WSW,255,18.0,18.0,28,0.00,,---,0.00,VWS V14.01,2013-05-13 17:29:00,
2013-05-13 11:34:00,65.2,33.8,30.13,SW,223,0.0,1.0,31,0.00,,---,0.00,VWS V14.01,2013-05-13 17:34:00,
2013-05-13 11:39:00,65.8,32.7,30.13,WNW,294,7.0,9.0,29,0.00,,---,0.00,VWS V14.01,2013-05-13 17:39:00,
2013-05-13 11:44:00,66.2,33.0,30.13,West,265,10.0,11.0,29,0.00,,---,0.00,VWS V14.01,2013-05-13 17:44:00,
2013-05-13 11:49:00,66.8,32.7,30.12,WSW,255,10.0,13.0,28,0.00,,---,0.00,VWS V14.01,2013-05-13 17:49:00,
2013-05-13 11:54:00,66.8,30.8,30.13,SW,233,4.0,9.0,26,0.00,,---,0.00,VWS V14.01,2013-05-13 17:54:00,
2013-05-13 11:59:00,67.2,31.2,30.12,WSW,248,5.0,10.0,26,0.00,,---,0.00,VWS V14.01,2013-05-13 17:59:00,
2013-05-13 12:04:00,67.4,32.3,30.12,WSW,255,9.0,15.0,27,0.00,,---,0.00,VWS V14.01,2013-05-13 18:04:00,
2013-05-13 12:09:00,67.0,31.0,30.12,West,279,9.0,12.0,26,0.00,,---,0.00,VWS V14.01,2013-05-13 18:09:00,
2013-05-13 12:14:00,66.9,30.9,30.12,WNW,298,10.0,10.0,26,0.00,,---,0.00,VWS V14.01,2013-05-13 18:14:00,
2013-05-13 12:19:00,67.1,32.0,30.12,WNW,285,19.0,19.0,27,0.00,,---,0.00,VWS V14.01,2013-05-13 18:19:00,
2013-05-13 12:24:00,66.6,30.7,30.12,WNW,300,8.0,15.0,26,0.00,,---,0.00,VWS V14.01,2013-05-13 18:24:00,
2013-05-13 12:29:00,66.6,30.7,30.12,West,267,7.0,8.0,26,0.00,,---,0.00,VWS V14.01,2013-05-13 18:29:00,
2013-05-13 12:34:00,66.6,29.7,30.11,WNW,293,11.0,12.0,25,0.00,,---,0.00,VWS V14.01,2013-05-13 18:34:00,
2013-05-13 12:39:00,66.9,29.0,30.11,SW,221,2.0,8.0,24,0.00,,---,0.00,VWS V14.01,2013-05-13 18:39:00,
2013-05-13 12:44:00,67.0,30.0,30.11,SW,224,7.0,12.0,25,0.00,,---,0.00,VWS V14.01,2013-05-13 18:44:00,
2013-05-13 12:49:00,67.2,27.1,30.11,SW,221,4.0,10.0,22,0.00,,---,0.00,VWS V14.01,2013-05-13 18:49:00,
2013-05-13 12:54:00,67.2,29.2,30.11,WSW,252,15.0,15.0,24,0.00,,---,0.00,VWS V14.01,2013-05-13 18:54:00,
2013-05-13 12:59:00,67.3,29.3,30.11,West,269,5.0,12.0,24,0.00,,---,0.00,VWS V14.01,2013-05-13 18:59:00,
2013-05-13 13:04:00,67.4,29.4,30.10,SW,216,2.0,10.0,24,0.00,,---,0.00,VWS V14.01,2013-05-13 19:04:00,
2013-05-13 13:09:00,67.8,30.7,30.10,NW,323,4.0,10.0,25,0.00,,---,0.00,VWS V14.01,2013-05-13 19:09:00,
2013-05-13 13:14:00,67.9,28.8,30.10,NNW,339,13.0,16.0,23,0.00,,---,0.00,VWS V14.01,2013-05-13 19:14:00,
2013-05-13 13:19:00,68.0,29.9,30.09,NW,318,13.0,13.0,24,0.00,,---,0.00,VWS V14.01,2013-05-13 19:19:00,
2013-05-13 13:24:00,68.1,28.9,30.09,WNW,298,5.0,12.0,23,0.00,,---,0.00,VWS V14.01,2013-05-13 19:24:00,
2013-05-13 13:29:00,67.9,29.8,30.09,West,278,4.0,11.0,24,0.00,,---,0.00,VWS V14.01,2013-05-13 19:29:00,
2013-05-13 13:34:00,67.8,28.7,30.09,West,277,6.0,10.0,23,0.00,,---,0.00,VWS V14.01,2013-05-13 19:34:00,
2013-05-13 13:39:00,68.1,32.9,30.09,WSW,244,7.0,11.0,27,0.00,,---,0.00,VWS V14.01,2013-05-13 19:39:00,
2013-05-13 13:44:00,68.4,31.2,30.09,SW,227,7.0,12.0,25,0.00,,---,0.00,VWS V14.01,2013-05-13 19:44:00,
2013-05-13 13:49:00,68.2,31.1,30.09,SSE,154,4.0,8.0,25,0.00,,---,0.00,VWS V14.01,2013-05-13 19:49:00,
2013-05-13 13:54:00,68.3,31.1,30.08,SE,138,4.0,5.0,25,0.00,,---,0.00,VWS V14.01,2013-05-13 19:54:00,
2013-05-13 13:59:00,68.5,29.3,30.08,SE,130,0.0,8.0,23,0.00,,---,0.00,VWS V14.01,2013-05-13 19:59:00,
2013-05-13 14:04:00,68.1,30.0,30.08,SE,130,3.0,6.0,24,0.00,,---,0.00,VWS V14.01,2013-05-13 20:04:00,
2013-05-13 14:09:00,67.3,29.3,30.08,ESE,103,5.0,5.0,24,0.00,,---,0.00,VWS V14.01,2013-05-13 20:09:00,
2013-05-13 14:15:00,66.7,30.8,30.08,ESE,103,2.0,4.0,26,0.00,,---,0.00,VWS V14.01,2013-05-13 20:15:00,
2013-05-13 14:20:00,66.6,30.7,30.08,SSW,194,7.0,9.0,26,0.00,,---,0.00,VWS V14.01,2013-05-13 20:20:00,
2013-05-13 14:25:00,66.8,29.9,30.08,WSW,246,8.0,10.0,25,0.00,,---,0.00,VWS V14.01,2013-05-13 20:25:00,
2013-05-13 14:30:00,67.3,29.3,30.08,WSW,251,6.0,7.0,24,0.00,,---,0.00,VWS V14.01,2013-05-13 20:30:00,
2013-05-13 14:35:00,67.2,29.2,30.07,SSE,167,6.0,6.0,24,0.00,,---,0.00,VWS V14.01,2013-05-13 20:35:00,
2013-05-13 14:40:00,67.7,31.6,30.07,South,170,3.0,8.0,26,0.00,,---,0.00,VWS V14.01,2013-05-13 20:40:00,
2013-05-13 14:45:00,68.7,32.5,30.07,WNW,288,6.0,8.0,26,0.00,,---,0.00,VWS V14.01,2013-05-13 20:45:00,
2013-05-13 14:50:00,69.4,31.1,30.07,SSW,205,2.0,2.0,24,0.00,,---,0.00,VWS V14.01,2013-05-13 20:50:00,
2013-05-13 14:55:00,69.7,36.9,30.06,South,174,6.0,6.0,30,0.00,,---,0.00,VWS V14.01,2013-05-13 20:55:00,
2013-05-13 15:00:00,70.0,30.5,30.06,South,186,6.0,9.0,23,0.00,,---,0.00,VWS V14.01,2013-05-13 21:00:00,
2013-05-13 15:05:00,69.9,28.2,30.06,SW,235,3.0,6.0,21,0.00,,---,0.00,VWS V14.01,2013-05-13 21:05:00,
2013-05-13 15:10:00,69.4,27.8,30.06,SSE,162,0.0,0.0,21,0.00,,---,0.00,VWS V14.01,2013-05-13 21:10:00,
2013-05-13 15:15:00,69.4,31.1,30.05,SSW,205,4.0,8.0,24,0.00,,---,0.00,VWS V14.01,2013-05-13 21:15:00,
2013-05-13 15:20:00,69.7,31.3,30.06,East,92,2.0,6.0,24,0.00,,---,0.00,VWS V14.01,2013-05-13 21:20:00,
2013-05-13 15:25:00,70.0,30.5,30.05,WSW,250,1.0,7.0,23,0.00,,---,0.00,VWS V14.01,2013-05-13 21:25:00,
2013-05-13 15:30:00,70.6,29.9,30.05,WSW,242,8.0,10.0,22,0.00,,---,0.00,VWS V14.01,2013-05-13 21:30:00,
2013-05-13 15:35:00,70.6,28.8,30.05,WSW,242,5.0,6.0,21,0.00,,---,0.00,VWS V14.01,2013-05-13 21:35:00,
2013-05-13 15:40:00,70.0,29.4,30.05,South,182,6.0,11.0,22,0.00,,---,0.00,VWS V14.01,2013-05-13 21:40:00,
2013-05-13 15:45:00,69.8,32.4,30.04,SSW,198,1.0,5.0,25,0.00,,---,0.00,VWS V14.01,2013-05-13 21:45:00,
2013-05-13 15:50:00,69.6,31.2,30.04,South,186,3.0,7.0,24,0.00,,---,0.00,VWS V14.01,2013-05-13 21:50:00,
2013-05-13 15:55:00,69.9,34.4,30.04,SSE,154,0.0,6.0,27,0.00,,---,0.00,VWS V14.01,2013-05-13 21:55:00,
2013-05-13 16:00:00,69.2,26.5,30.04,SSE,162,2.0,5.0,20,0.00,,---,0.00,VWS V14.01,2013-05-13 22:00:00,
2013-05-13 16:05:00,69.3,29.9,30.03,SSW,202,0.0,5.0,23,0.00,,---,0.00,VWS V14.01,2013-05-13 22:05:00,
2013-05-13 16:10:00,69.6,33.2,30.03,SE,137,7.0,7.0,26,0.00,,---,0.00,VWS V14.01,2013-05-13 22:10:00,
2013-05-13 16:15:00,69.3,31.0,30.03,ESE,103,6.0,11.0,24,0.00,,---,0.00,VWS V14.01,2013-05-13 22:15:00,
2013-05-13 16:20:00,69.6,31.2,30.03,West,271,7.0,11.0,24,0.00,,---,0.00,VWS V14.01,2013-05-13 22:20:00,
2013-05-13 16:25:00,69.7,28.0,30.02,West,267,5.0,8.0,21,0.00,,---,0.00,VWS V14.01,2013-05-13 22:25:00,
2013-05-13 16:30:00,69.4,34.0,30.02,SE,137,7.0,10.0,27,0.00,,---,0.00,VWS V14.01,2013-05-13 22:30:00,
2013-05-13 16:35:00,69.1,34.7,30.02,ESE,123,6.0,8.0,28,0.00,,---,0.00,VWS V14.01,2013-05-13 22:35:00,
2013-05-13 16:40:00,68.0,34.6,30.02,SE,130,8.0,11.0,29,0.00,,---,0.00,VWS V14.01,2013-05-13 22:40:00,
2013-05-13 16:45:00,67.1,34.7,30.01,SE,125,6.0,13.0,30,0.00,,---,0.00,VWS V14.01,2013-05-13 22:45:00,
2013-05-13 16:50:00,66.6,34.2,30.01,SSE,159,6.0,9.0,30,0.00,,---,0.00,VWS V14.01,2013-05-13 22:50:00,
2013-05-13 16:55:00,66.1,33.8,30.01,SE,130,8.0,13.0,30,0.00,,---,0.00,VWS V14.01,2013-05-13 22:55:00,
2013-05-13 17:00:00,65.9,34.4,30.01,ESE,118,11.0,13.0,31,0.00,,---,0.00,VWS V14.01,2013-05-13 23:00:00,
2013-05-13 17:05:00,65.3,34.7,30.01,ESE,113,10.0,14.0,32,0.00,,---,0.00,VWS V14.01,2013-05-13 23:05:00,
2013-05-13 17:10:00,64.9,34.4,30.00,SE,128,8.0,12.0,32,0.00,,---,0.00,VWS V14.01,2013-05-13 23:10:00,
2013-05-13 17:15:00,64.8,34.3,30.00,ESE,119,7.0,9.0,32,0.00,,---,0.00,VWS V14.01,2013-05-13 23:15:00,
2013-05-13 17:20:00,64.7,34.2,30.00,ESE,115,8.0,8.0,32,0.00,,---,0.00,VWS V14.01,2013-05-13 23:20:00,
2013-05-13 17:25:00,64.6,34.9,30.00,SSE,157,5.0,8.0,33,0.00,,---,0.00,VWS V14.01,2013-05-13 23:25:00,
2013-05-13 17:30:00,64.5,34.8,30.01,SE,130,9.0,11.0,33,0.00,,---,0.00,VWS V14.01,2013-05-13 23:30:00,
2013-05-13 17:35:00,64.2,33.0,30.01,SE,143,6.0,9.0,31,0.00,,---,0.00,VWS V14.01,2013-05-13 23:35:00,
2013-05-13 17:40:00,63.9,35.0,30.00,ESE,110,6.0,8.0,34,0.00,,---,0.00,VWS V14.01,2013-05-13 23:40:00,
2013-05-13 17:45:00,63.7,34.8,30.00,ESE,115,6.0,6.0,34,0.00,,---,0.00,VWS V14.01,2013-05-13 23:45:00,
2013-05-13 17:50:00,63.3,33.7,30.00,ENE,78,7.0,8.0,33,0.00,,---,0.00,VWS V14.01,2013-05-13 23:50:00,
2013-05-13 17:55:00,63.1,33.6,30.00,East,90,4.0,8.0,33,0.00,,---,0.00,VWS V14.01,2013-05-13 23:55:00,
2013-05-13 18:00:00,63.0,33.5,30.00,East,88,8.0,9.0,33,0.00,,---,0.00,VWS V14.01,2013-05-14 00:00:00,
2013-05-13 18:05:00,62.9,32.6,30.00,East,84,2.0,5.0,32,0.00,,---,0.00,VWS V14.01,2013-05-14 00:05:00,
2013-05-13 18:10:00,62.9,34.1,29.99,East,84,4.0,5.0,34,0.00,,---,0.00,VWS V14.01,2013-05-14 00:10:00,
2013-05-13 18:15:00,62.9,33.4,29.99,East,84,1.0,3.0,33,0.00,,---,0.00,VWS V14.01,2013-05-14 00:15:00,
2013-05-13 18:20:00,62.7,33.2,29.99,SE,128,6.0,6.0,33,0.00,,---,0.00,VWS V14.01,2013-05-14 00:20:00,
2013-05-13 18:25:00,62.5,33.8,29.99,ESE,117,5.0,9.0,34,0.00,,---,0.00,VWS V14.01,2013-05-14 00:25:00,
2013-05-13 18:30:00,62.1,34.2,29.99,ESE,112,6.0,7.0,35,0.00,,---,0.00,VWS V14.01,2013-05-14 00:30:00,
2013-05-13 18:35:00,61.8,33.9,29.99,East,101,3.0,6.0,35,0.00,,---,0.00,VWS V14.01,2013-05-14 00:35:00,
2013-05-13 18:40:00,61.6,33.7,29.99,East,101,6.0,6.0,35,0.00,,---,0.00,VWS V14.01,2013-05-14 00:40:00,
2013-05-13 18:45:00,61.3,34.1,29.99,ENE,78,8.0,9.0,36,0.00,,---,0.00,VWS V14.01,2013-05-14 00:45:00,
2013-05-13 18:50:00,61.0,34.6,29.99,East,84,7.0,9.0,37,0.00,,---,0.00,VWS V14.01,2013-05-14 00:50:00,
2013-05-13 18:55:00,60.7,35.0,29.99,ESE,107,6.0,9.0,38,0.00,,---,0.00,VWS V14.01,2013-05-14 00:55:00,
2013-05-13 19:00:00,60.6,34.9,29.99,East,92,5.0,7.0,38,0.00,,---,0.00,VWS V14.01,2013-05-14 01:00:00,
2013-05-13 19:05:00,60.5,35.4,29.99,East,88,1.0,5.0,39,0.00,,---,0.00,VWS V14.01,2013-05-14 01:05:00,
2013-05-13 19:10:00,60.4,34.7,29.99,ENE,75,0.0,4.0,38,0.00,,---,0.00,VWS V14.01,2013-05-14 01:10:00,
2013-05-13 19:15:00,60.2,34.5,29.99,ENE,75,1.0,2.0,38,0.00,,---,0.00,VWS V14.01,2013-05-14 01:15:00,
2013-05-13 19:20:00,60.1,34.4,29.99,ENE,75,4.0,4.0,38,0.00,,---,0.00,VWS V14.01,2013-05-14 01:20:00,
2013-05-13 19:25:00,60.0,33.0,29.99,ENE,75,0.0,0.0,36,0.00,,---,0.00,VWS V14.01,2013-05-14 01:25:00,
2013-05-13 19:30:00,59.9,34.2,29.99,ENE,75,0.0,0.0,38,0.00,,---,0.00,VWS V14.01,2013-05-14 01:30:00,
2013-05-13 19:35:00,59.7,34.7,29.99,ENE,75,0.0,0.0,39,0.00,,---,0.00,VWS V14.01,2013-05-14 01:35:00,
2013-05-13 19:40:00,59.4,35.1,29.99,ENE,75,0.0,0.0,40,0.00,,---,0.00,VWS V14.01,2013-05-14 01:40:00,
2013-05-13 19:45:00,58.9,35.9,29.99,ENE,75,0.0,0.0,42,0.00,,---,0.00,VWS V14.01,2013-05-14 01:45:00,
2013-05-13 19:50:00,58.6,35.0,29.99,East,101,1.0,4.0,41,0.00,,---,0.00,VWS V14.01,2013-05-14 01:50:00,
2013-05-13 19:55:00,58.2,34.6,29.99,East,101,3.0,5.0,41,0.00,,---,0.00,VWS V14.01,2013-05-14 01:55:00,
2013-05-13 20:00:00,58.0,35.1,29.99,East,101,0.0,0.0,42,0.00,,---,0.00,VWS V14.01,2013-05-14 02:00:00,
2013-05-13 20:05:00,57.5,35.2,29.99,East,101,1.0,2.0,43,0.00,,---,0.00,VWS V14.01,2013-05-14 02:05:00,
2013-05-13 20:10:00,57.1,32.4,29.99,SSW,196,2.0,5.0,39,0.00,,---,0.00,VWS V14.01,2013-05-14 02:10:00,
2013-05-13 20:15:00,56.8,32.8,29.99,West,278,4.0,5.0,40,0.00,,---,0.00,VWS V14.01,2013-05-14 02:15:00,
2013-05-13 20:20:00,56.6,33.2,29.99,West,278,4.0,4.0,41,0.00,,---,0.00,VWS V14.01,2013-05-14 02:20:00,
2013-05-13 20:25:00,56.2,33.4,29.99,West,278,3.0,4.0,42,0.00,,---,0.00,VWS V14.01,2013-05-14 02:25:00,
2013-05-13 20:30:00,55.8,32.5,29.99,West,278,4.0,5.0,41,0.00,,---,0.00,VWS V14.01,2013-05-14 02:30:00,
2013-05-13 20:35:00,55.5,32.2,29.99,West,278,2.0,2.0,41,0.00,,---,0.00,VWS V14.01,2013-05-14 02:35:00,
2013-05-13 20:41:00,55.1,32.4,29.99,West,278,4.0,4.0,42,0.00,,---,0.00,VWS V14.01,2013-05-14 02:41:00,
2013-05-13 20:46:00,54.8,32.2,29.99,West,279,4.0,4.0,42,0.00,,---,0.00,VWS V14.01,2013-05-14 02:46:00,
2013-05-13 20:51:00,54.4,31.8,29.99,West,279,4.0,5.0,42,0.00,,---,0.00,VWS V14.01,2013-05-14 02:51:00,
2013-05-13 20:56:00,54.3,31.1,30.00,West,279,0.0,1.0,41,0.00,,---,0.00,VWS V14.01,2013-05-14 02:56:00,
2013-05-13 21:01:00,54.1,31.5,30.00,West,279,0.0,0.0,42,0.00,,---,0.00,VWS V14.01,2013-05-14 03:01:00,
2013-05-13 21:06:00,53.7,31.8,30.00,SSW,212,1.0,3.0,43,0.00,,---,0.00,VWS V14.01,2013-05-14 03:06:00,
2013-05-13 21:11:00,53.5,31.6,30.00,SW,214,0.0,1.0,43,0.00,,---,0.00,VWS V14.01,2013-05-14 03:11:00,
2013-05-13 21:16:00,53.2,31.3,30.00,SW,227,5.0,5.0,43,0.00,,---,0.00,VWS V14.01,2013-05-14 03:16:00,
2013-05-13 21:21:00,53.0,30.5,30.00,West,271,1.0,1.0,42,0.00,,---,0.00,VWS V14.01,2013-05-14 03:21:00,
2013-05-13 21:26:00,52.8,30.9,30.00,West,272,2.0,4.0,43,0.00,,---,0.00,VWS V14.01,2013-05-14 03:26:00,
2013-05-13 21:31:00,52.7,30.9,30.00,SW,229,5.0,7.0,43,0.00,,---,0.00,VWS V14.01,2013-05-14 03:31:00,
2013-05-13 21:36:00,52.7,30.3,30.00,SW,236,2.0,4.0,42,0.00,,---,0.00,VWS V14.01,2013-05-14 03:36:00,
2013-05-13 21:41:00,52.7,30.3,30.00,WSW,247,4.0,6.0,42,0.00,,---,0.00,VWS V14.01,2013-05-14 03:41:00,
2013-05-13 21:46:00,52.7,30.3,30.00,WSW,241,2.0,5.0,42,0.00,,---,0.00,VWS V14.01,2013-05-14 03:46:00,
2013-05-13 21:51:00,52.6,30.2,30.00,WSW,242,6.0,6.0,42,0.00,,---,0.00,VWS V14.01,2013-05-14 03:51:00,
2013-05-13 21:56:00,52.4,30.6,30.00,WSW,251,1.0,7.0,43,0.00,,---,0.00,VWS V14.01,2013-05-14 03:56:00,
2013-05-13 22:01:00,52.4,30.6,30.00,West,267,5.0,6.0,43,0.00,,---,0.00,VWS V14.01,2013-05-14 04:01:00,
2013-05-13 22:06:00,52.3,31.0,30.00,West,281,3.0,6.0,44,0.00,,---,0.00,VWS V14.01,2013-05-14 04:06:00,
2013-05-13 22:11:00,52.1,30.9,30.00,West,262,4.0,5.0,44,0.00,,---,0.00,VWS V14.01,2013-05-14 04:11:00,
2013-05-13 22:16:00,52.0,30.2,30.00,WSW,257,2.0,5.0,43,0.00,,---,0.00,VWS V14.01,2013-05-14 04:16:00,
2013-05-13 22:21:00,51.8,30.6,30.00,WSW,257,0.0,0.0,44,0.00,,---,0.00,VWS V14.01,2013-05-14 04:21:00,
2013-05-13 22:26:00,51.4,30.2,30.00,WSW,257,0.0,2.0,44,0.00,,---,0.00,VWS V14.01,2013-05-14 04:26:00,
2013-05-13 22:32:00,51.2,31.1,30.00,WSW,257,0.0,0.0,46,0.00,,---,0.00,VWS V14.01,2013-05-14 04:32:00,
2013-05-13 22:37:00,50.9,30.3,30.00,WSW,257,0.0,1.0,45,0.00,,---,0.00,VWS V14.01,2013-05-14 04:37:00,
2013-05-13 22:42:00,50.7,30.1,30.00,WSW,257,2.0,4.0,45,0.00,,---,0.00,VWS V14.01,2013-05-14 04:42:00,
2013-05-13 22:47:00,50.8,30.2,30.00,WSW,257,2.0,4.0,45,0.00,,---,0.00,VWS V14.01,2013-05-14 04:47:00,
2013-05-13 22:52:00,51.0,29.9,29.99,WSW,257,2.0,4.0,44,0.00,,---,0.00,VWS V14.01,2013-05-14 04:52:00,
2013-05-13 22:57:00,51.2,30.0,29.99,WSW,257,2.0,4.0,44,0.00,,---,0.00,VWS V14.01,2013-05-14 04:57:00,
2013-05-13 23:02:00,51.2,30.0,29.99,WSW,257,4.0,5.0,44,0.00,,---,0.00,VWS V14.01,2013-05-14 05:02:00,
2013-05-13 23:07:00,51.2,30.0,29.99,WSW,257,4.0,5.0,44,0.00,,---,0.00,VWS V14.01,2013-05-14 05:07:00,
2013-05-13 23:12:00,51.3,30.1,29.98,WSW,257,4.0,5.0,44,0.00,,---,0.00,VWS V14.01,2013-05-14 05:12:00,
2013-05-13 23:17:00,51.5,30.9,29.98,WSW,257,4.0,4.0,45,0.00,,---,0.00,VWS V14.01,2013-05-14 05:17:00,
2013-05-13 23:22:00,51.4,30.8,29.98,WSW,257,0.0,0.0,45,0.00,,---,0.00,VWS V14.01,2013-05-14 05:22:00,
2013-05-13 23:27:00,51.1,30.5,29.98,WSW,257,0.0,0.0,45,0.00,,---,0.00,VWS V14.01,2013-05-14 05:27:00,
2013-05-13 23:32:00,51.0,30.4,29.98,WSW,257,0.0,1.0,45,0.00,,---,0.00,VWS V14.01,2013-05-14 05:32:00,
2013-05-13 23:37:00,50.8,30.2,29.98,WSW,257,0.0,0.0,45,0.00,,---,0.00,VWS V14.01,2013-05-14 05:37:00,
2013-05-13 23:42:00,50.6,30.6,29.98,WSW,257,0.0,0.0,46,0.00,,---,0.00,VWS V14.01,2013-05-14 05:42:00,
2013-05-13 23:47:00,50.5,30.0,29.98,WSW,257,0.0,0.0,45,0.00,,---,0.00,VWS V14.01,2013-05-14 05:47:00,
2013-05-13 23:52:00,50.5,30.5,29.98,WSW,257,0.0,0.0,46,0.00,,---,0.00,VWS V14.01,2013-05-14 05:52:00,
2013-05-13 23:58:00,50.6,30.6,29.98,WSW,257,0.0,0.0,46,0.00,,---,0.00,VWS V14.01,2013-05-14 05:58:00,